SWA2423 KPHX-KSFO

Flight info

Callsign SWA2423
Flight time 1h 33m
Altitude 40000
Route ZEPER2 RRSTA DOVEE BTY RUSME DYAMD5
Aircraft B737/M-SADE2E3GIJ4RWZ/LB1D1

Departure

Time 2026-05-05 16:47
Airport Phoenix Sky Harbor International Airport (KPHX)

Arrival

Time 2026-05-05 18:20
Airport San Francisco International Airport (KSFO)
Time Latitude Longitude Altitude Speed Heading
2026-05-05 16:24 33.43407 -111.99372 1120 ft 0 kts 290°
2026-05-05 16:40 33.43405 -111.99366 1123 ft 4 kts 290°
2026-05-05 16:40 33.43397 -111.99341 1116 ft 3 kts 289°
2026-05-05 16:40 33.43395 -111.99315 1117 ft 4 kts 230°
2026-05-05 16:41 33.43414 -111.99306 1123 ft 4 kts 180°
2026-05-05 16:41 33.43424 -111.99306 1113 ft 0 kts 180°
2026-05-05 16:44 33.43423 -111.99306 1113 ft 0 kts 180°
2026-05-05 16:44 33.43404 -111.99306 1116 ft 6 kts 180°
2026-05-05 16:44 33.43342 -111.99307 1118 ft 10 kts 180°
2026-05-05 16:44 33.43278 -111.99326 1117 ft 10 kts 208°
2026-05-05 16:45 33.43215 -111.99346 1126 ft 9 kts 181°
2026-05-05 16:45 33.43150 -111.99347 1135 ft 9 kts 181°
2026-05-05 16:45 33.43108 -111.99392 1131 ft 9 kts 245°
2026-05-05 16:45 33.43104 -111.99447 1131 ft 0 kts 272°
2026-05-05 16:46 33.43104 -111.99460 1131 ft 8 kts 272°
2026-05-05 16:46 33.43106 -111.99789 1131 ft 80 kts 269°
2026-05-05 16:46 33.43106 -112.00760 1141 ft 149 kts 269°
2026-05-05 16:46 33.43068 -112.02100 1713 ft 162 kts 265°
2026-05-05 16:47 33.43026 -112.03452 2511 ft 171 kts 271°
2026-05-05 16:47 33.43080 -112.05021 2853 ft 204 kts 272°
2026-05-05 16:47 33.43159 -112.06807 3287 ft 227 kts 271°
2026-05-05 16:47 33.43223 -112.08730 4259 ft 231 kts 269°
2026-05-05 16:48 33.43279 -112.10663 5171 ft 238 kts 269°
2026-05-05 16:48 33.43336 -112.12683 6218 ft 241 kts 268°
2026-05-05 16:48 33.43392 -112.14689 7189 ft 247 kts 269°
2026-05-05 16:48 33.43580 -112.16740 8269 ft 253 kts 285°
2026-05-05 16:49 33.44531 -112.18550 9334 ft 266 kts 313°
2026-05-05 16:49 33.46184 -112.19635 10338 ft 281 kts 345°
2026-05-05 16:49 33.48164 -112.19780 11243 ft 290 kts 358°
2026-05-05 16:49 33.50206 -112.19717 12106 ft 297 kts 359°
2026-05-05 16:50 33.52290 -112.19650 13005 ft 303 kts 359°
2026-05-05 16:50 33.54436 -112.19648 13724 ft 318 kts 354°
2026-05-05 16:50 33.56751 -112.19860 13951 ft 348 kts 352°
2026-05-05 16:50 33.59254 -112.20126 14330 ft 370 kts 352°
2026-05-05 16:51 33.61851 -112.20381 15103 ft 378 kts 352°
2026-05-05 16:51 33.64423 -112.20825 15989 ft 379 kts 343°
2026-05-05 16:51 33.66987 -112.21604 16908 ft 380 kts 339°
2026-05-05 16:51 33.69536 -112.22492 17849 ft 383 kts 338°
2026-05-05 16:52 33.72113 -112.23404 18682 ft 388 kts 338°
2026-05-05 16:52 33.74727 -112.24309 19426 ft 394 kts 338°
2026-05-05 16:52 33.77383 -112.25204 20120 ft 400 kts 338°
2026-05-05 16:52 33.80092 -112.26097 20860 ft 405 kts 338°
2026-05-05 16:53 33.82825 -112.26986 21596 ft 410 kts 338°
2026-05-05 16:53 33.85605 -112.27886 22302 ft 416 kts 337°
2026-05-05 16:53 33.88417 -112.28794 23014 ft 421 kts 337°
2026-05-05 16:53 33.91234 -112.29704 23664 ft 425 kts 336°
2026-05-05 16:54 33.94103 -112.30632 24210 ft 431 kts 336°
2026-05-05 16:54 33.97022 -112.31578 24731 ft 436 kts 335°
2026-05-05 16:54 33.99976 -112.32537 25249 ft 442 kts 335°
2026-05-05 16:54 34.02832 -112.33699 25740 ft 432 kts 321°
2026-05-05 16:55 34.05252 -112.35731 26283 ft 414 kts 308°
2026-05-05 16:55 34.06719 -112.37201 26680 ft 415 kts 307°
2026-05-05 16:55 34.09662 -112.40200 27461 ft 419 kts 306°
2026-05-05 16:55 34.11877 -112.42499 28016 ft 422 kts 305°
2026-05-05 16:56 34.14122 -112.44822 28577 ft 427 kts 306°
2026-05-05 16:56 34.16397 -112.47147 29157 ft 430 kts 306°
2026-05-05 16:56 34.17949 -112.48720 29542 ft 432 kts 306°
2026-05-05 16:56 34.20235 -112.51031 30021 ft 436 kts 305°
2026-05-05 16:57 34.22569 -112.53392 30454 ft 437 kts 305°
2026-05-05 16:57 34.24908 -112.55750 30858 ft 437 kts 305°
2026-05-05 16:57 34.27238 -112.58103 31118 ft 438 kts 305°
2026-05-05 16:57 34.29620 -112.60448 31340 ft 442 kts 306°
2026-05-05 16:58 34.31993 -112.62807 31499 ft 444 kts 306°
2026-05-05 16:58 34.34348 -112.65220 31807 ft 439 kts 303°
2026-05-05 16:58 34.36632 -112.67662 32145 ft 440 kts 304°
2026-05-05 16:58 34.38977 -112.70062 32474 ft 441 kts 305°
2026-05-05 16:59 34.41335 -112.72432 32813 ft 440 kts 305°
2026-05-05 16:59 34.43691 -112.74793 33179 ft 438 kts 304°
2026-05-05 16:59 34.46038 -112.77156 33520 ft 437 kts 304°
2026-05-05 16:59 34.48369 -112.79518 33878 ft 436 kts 304°
2026-05-05 17:00 34.50695 -112.81886 34096 ft 437 kts 304°
2026-05-05 17:00 34.53025 -112.84260 34311 ft 437 kts 304°
2026-05-05 17:00 34.55324 -112.86603 34525 ft 439 kts 305°
2026-05-05 17:00 34.57671 -112.89000 34686 ft 440 kts 305°
2026-05-05 17:01 34.60014 -112.91400 34910 ft 441 kts 305°
2026-05-05 17:01 34.62360 -112.93809 35144 ft 440 kts 306°
2026-05-05 17:01 34.64691 -112.96198 35448 ft 438 kts 306°
2026-05-05 17:01 34.67021 -112.98587 35666 ft 438 kts 306°
2026-05-05 17:02 34.69355 -113.00989 35859 ft 439 kts 306°
2026-05-05 17:02 34.71656 -113.03359 36044 ft 439 kts 306°
2026-05-05 17:02 34.73981 -113.05765 36279 ft 438 kts 305°
2026-05-05 17:02 34.75905 -113.08505 36277 ft 415 kts 288°
2026-05-05 17:03 34.77230 -113.11569 36519 ft 408 kts 285°
2026-05-05 17:03 34.78482 -113.14671 36619 ft 409 kts 285°
2026-05-05 17:03 34.79724 -113.17800 36800 ft 410 kts 285°
2026-05-05 17:03 34.80971 -113.20924 37056 ft 409 kts 285°
2026-05-05 17:04 34.82224 -113.24035 37261 ft 409 kts 286°
2026-05-05 17:04 34.83487 -113.27151 37411 ft 411 kts 286°
2026-05-05 17:04 34.84758 -113.30268 37606 ft 411 kts 286°
2026-05-05 17:04 34.86029 -113.33375 37828 ft 410 kts 286°
2026-05-05 17:05 34.87290 -113.36455 37982 ft 411 kts 287°
2026-05-05 17:05 34.88565 -113.39572 38113 ft 412 kts 287°
2026-05-05 17:05 34.89847 -113.42708 38303 ft 413 kts 287°
2026-05-05 17:05 34.91136 -113.45867 38330 ft 418 kts 288°
2026-05-05 17:06 34.92435 -113.49043 38468 ft 421 kts 288°
2026-05-05 17:06 34.93744 -113.52243 38721 ft 421 kts 288°
2026-05-05 17:06 34.95048 -113.55430 38987 ft 419 kts 288°
2026-05-05 17:06 34.96349 -113.58618 39158 ft 420 kts 288°
2026-05-05 17:07 34.97654 -113.61819 39295 ft 421 kts 288°
2026-05-05 17:07 34.98955 -113.65023 39508 ft 421 kts 288°
2026-05-05 17:07 35.00234 -113.68177 39725 ft 420 kts 289°
2026-05-05 17:07 35.01531 -113.71381 39833 ft 422 kts 289°
2026-05-05 17:08 35.04136 -113.77826 39838 ft 424 kts 289°
2026-05-05 17:08 35.06749 -113.84292 39835 ft 424 kts 289°
2026-05-05 17:09 35.09349 -113.90741 39836 ft 423 kts 289°
2026-05-05 17:09 35.11944 -113.97192 39833 ft 423 kts 289°
2026-05-05 17:10 35.14536 -114.03649 39833 ft 423 kts 289°
2026-05-05 17:10 35.15826 -114.06868 39938 ft 423 kts 289°
2026-05-05 17:10 35.17124 -114.10109 39937 ft 423 kts 290°
2026-05-05 17:11 35.19710 -114.16579 39921 ft 424 kts 290°
2026-05-05 17:11 35.22301 -114.23071 39901 ft 426 kts 290°
2026-05-05 17:12 35.24882 -114.29552 39872 ft 427 kts 290°
2026-05-05 17:12 35.27483 -114.36094 39865 ft 427 kts 290°
2026-05-05 17:13 35.30078 -114.42631 39877 ft 428 kts 290°
2026-05-05 17:13 35.32677 -114.49197 39871 ft 429 kts 290°
2026-05-05 17:14 35.35279 -114.55786 39882 ft 430 kts 290°
2026-05-05 17:14 35.37879 -114.62379 39886 ft 431 kts 291°
2026-05-05 17:15 35.40484 -114.68999 39892 ft 431 kts 291°
2026-05-05 17:15 35.43090 -114.75633 39894 ft 431 kts 291°
2026-05-05 17:16 35.46119 -114.82007 39899 ft 438 kts 304°
2026-05-05 17:16 35.50101 -114.87618 39913 ft 439 kts 306°
2026-05-05 17:17 35.54180 -114.93221 39921 ft 440 kts 307°
2026-05-05 17:17 35.58237 -114.98859 39918 ft 440 kts 306°
2026-05-05 17:18 35.62274 -115.04525 39941 ft 441 kts 306°
2026-05-05 17:18 35.66309 -115.10220 39922 ft 442 kts 307°
2026-05-05 17:19 35.70345 -115.15923 39941 ft 442 kts 307°
2026-05-05 17:19 35.74358 -115.21602 39938 ft 442 kts 307°
2026-05-05 17:20 35.78395 -115.27324 39951 ft 442 kts 307°
2026-05-05 17:20 35.82418 -115.33035 39960 ft 441 kts 307°
2026-05-05 17:21 35.86439 -115.38758 39960 ft 442 kts 307°
2026-05-05 17:22 35.92480 -115.47369 39944 ft 442 kts 307°
2026-05-05 17:22 35.96502 -115.53111 39945 ft 442 kts 307°
2026-05-05 17:23 36.00499 -115.58828 39935 ft 442 kts 307°
2026-05-05 17:23 36.04517 -115.64588 39940 ft 442 kts 308°
2026-05-05 17:24 36.08542 -115.70368 39924 ft 442 kts 308°
2026-05-05 17:24 36.12563 -115.76149 39924 ft 442 kts 308°
2026-05-05 17:25 36.16544 -115.81884 39915 ft 442 kts 308°
2026-05-05 17:25 36.20553 -115.87668 39907 ft 442 kts 308°
2026-05-05 17:26 36.24565 -115.93468 39899 ft 442 kts 308°
2026-05-05 17:26 36.28566 -115.99261 39894 ft 443 kts 308°
2026-05-05 17:27 36.32575 -116.05076 39883 ft 443 kts 308°
2026-05-05 17:27 36.36581 -116.10898 39880 ft 443 kts 308°
2026-05-05 17:28 36.40557 -116.16685 39872 ft 443 kts 309°
2026-05-05 17:28 36.44550 -116.22508 39874 ft 443 kts 308°
2026-05-05 17:29 36.48510 -116.28292 39878 ft 443 kts 309°
2026-05-05 17:29 36.52255 -116.33771 39874 ft 443 kts 309°
2026-05-05 17:30 36.56247 -116.39622 39874 ft 443 kts 309°
2026-05-05 17:30 36.60205 -116.45432 39882 ft 443 kts 309°
2026-05-05 17:31 36.64196 -116.51302 39884 ft 444 kts 309°
2026-05-05 17:31 36.68185 -116.57180 39881 ft 444 kts 309°
2026-05-05 17:32 36.72178 -116.63073 39886 ft 444 kts 310°
2026-05-05 17:32 36.76159 -116.68961 39886 ft 442 kts 310°
2026-05-05 17:33 36.80134 -116.74807 39879 ft 442 kts 312°
2026-05-05 17:33 36.84633 -116.80024 39882 ft 441 kts 319°
2026-05-05 17:34 36.89265 -116.84998 39892 ft 441 kts 319°
2026-05-05 17:34 36.93900 -116.90029 39899 ft 442 kts 319°
2026-05-05 17:35 36.98525 -116.95122 39889 ft 443 kts 319°
2026-05-05 17:35 37.03140 -117.00238 39891 ft 443 kts 319°
2026-05-05 17:36 37.07767 -117.05379 39897 ft 444 kts 319°
2026-05-05 17:36 37.12395 -117.10525 39898 ft 445 kts 319°
2026-05-05 17:37 37.16998 -117.15653 39898 ft 445 kts 319°
2026-05-05 17:37 37.21644 -117.20837 39890 ft 445 kts 319°
2026-05-05 17:38 37.26281 -117.26019 39901 ft 446 kts 319°
2026-05-05 17:38 37.30878 -117.31168 39894 ft 445 kts 319°
2026-05-05 17:39 37.35495 -117.36347 39891 ft 443 kts 319°
2026-05-05 17:39 37.40089 -117.41509 39898 ft 442 kts 319°
2026-05-05 17:40 37.44682 -117.46677 39910 ft 443 kts 319°
2026-05-05 17:40 37.48797 -117.52420 39904 ft 447 kts 297°
2026-05-05 17:40 37.49840 -117.56120 39878 ft 451 kts 280°
2026-05-05 17:41 37.50224 -117.59984 39936 ft 451 kts 277°
2026-05-05 17:41 37.50810 -117.67874 39894 ft 454 kts 276°
2026-05-05 17:42 37.51388 -117.75815 39910 ft 456 kts 277°
2026-05-05 17:42 37.52007 -117.83777 39904 ft 457 kts 277°
2026-05-05 17:43 37.52538 -117.90422 39903 ft 458 kts 277°
2026-05-05 17:43 37.53178 -117.98410 39908 ft 459 kts 277°
2026-05-05 17:44 37.53814 -118.06415 39908 ft 459 kts 277°
2026-05-05 17:44 37.54442 -118.14415 39931 ft 458 kts 277°
2026-05-05 17:45 37.55064 -118.22412 39951 ft 458 kts 277°
2026-05-05 17:45 37.55675 -118.30337 39963 ft 457 kts 277°
2026-05-05 17:46 37.56285 -118.38307 39957 ft 456 kts 278°
2026-05-05 17:46 37.56890 -118.46290 39969 ft 458 kts 278°
2026-05-05 17:47 37.57492 -118.54312 39980 ft 459 kts 277°
2026-05-05 17:47 37.58088 -118.62332 40011 ft 459 kts 278°
2026-05-05 17:48 37.58675 -118.70300 40030 ft 460 kts 278°
2026-05-05 17:48 37.59261 -118.78324 40054 ft 461 kts 277°
2026-05-05 17:49 37.59844 -118.86389 40038 ft 461 kts 277°
2026-05-05 17:49 37.60422 -118.94456 40042 ft 461 kts 278°
2026-05-05 17:50 37.60992 -119.02499 40017 ft 459 kts 278°
2026-05-05 17:50 37.61555 -119.10517 39979 ft 458 kts 278°
2026-05-05 17:51 37.62108 -119.18466 39981 ft 458 kts 278°
2026-05-05 17:51 37.62659 -119.26463 39975 ft 456 kts 278°
2026-05-05 17:52 37.63204 -119.34444 39814 ft 459 kts 278°
2026-05-05 17:52 37.63478 -119.38485 39336 ft 462 kts 278°
2026-05-05 17:52 37.63748 -119.42529 38815 ft 462 kts 279°
2026-05-05 17:52 37.64017 -119.46543 38121 ft 463 kts 279°
2026-05-05 17:53 37.64287 -119.50592 37514 ft 463 kts 279°
2026-05-05 17:53 37.64551 -119.54578 37034 ft 459 kts 280°
2026-05-05 17:53 37.64815 -119.58587 36584 ft 457 kts 281°
2026-05-05 17:53 37.65076 -119.62574 36172 ft 455 kts 281°
2026-05-05 17:54 37.65340 -119.66589 35735 ft 462 kts 281°
2026-05-05 17:54 37.65607 -119.70650 35227 ft 464 kts 281°
2026-05-05 17:54 37.65869 -119.74703 34797 ft 462 kts 282°
2026-05-05 17:54 37.66128 -119.78750 34311 ft 462 kts 282°
2026-05-05 17:55 37.66385 -119.82781 33808 ft 461 kts 282°
2026-05-05 17:55 37.66639 -119.86803 33311 ft 459 kts 282°
2026-05-05 17:55 37.66889 -119.90799 32866 ft 455 kts 282°
2026-05-05 17:55 37.67145 -119.94780 32415 ft 452 kts 282°
2026-05-05 17:56 37.67392 -119.98718 31983 ft 449 kts 282°
2026-05-05 17:56 37.67632 -120.02634 31551 ft 446 kts 282°
2026-05-05 17:56 37.67867 -120.06460 31135 ft 444 kts 282°
2026-05-05 17:56 37.68107 -120.10378 30678 ft 442 kts 282°
2026-05-05 17:57 37.68339 -120.14172 30266 ft 439 kts 282°
2026-05-05 17:57 37.68572 -120.18013 29774 ft 437 kts 282°
2026-05-05 17:57 37.68805 -120.21862 29307 ft 433 kts 281°
2026-05-05 17:57 37.69030 -120.25597 28833 ft 429 kts 281°
2026-05-05 17:58 37.69255 -120.29337 28370 ft 425 kts 281°
2026-05-05 17:58 37.69477 -120.33040 27904 ft 421 kts 281°
2026-05-05 17:58 37.69694 -120.36703 27456 ft 417 kts 281°
2026-05-05 17:58 37.69891 -120.40349 27018 ft 415 kts 278°
2026-05-05 17:59 37.69702 -120.44005 26533 ft 419 kts 268°
2026-05-05 17:59 37.69261 -120.47633 26064 ft 418 kts 265°
2026-05-05 17:59 37.68768 -120.51247 25583 ft 415 kts 265°
2026-05-05 17:59 37.68289 -120.54810 25087 ft 406 kts 265°
2026-05-05 18:00 37.67851 -120.58237 24644 ft 396 kts 266°
2026-05-05 18:00 37.67438 -120.61627 24195 ft 386 kts 266°
2026-05-05 18:00 37.67046 -120.64945 23763 ft 377 kts 267°
2026-05-05 18:00 37.66667 -120.68198 23302 ft 375 kts 267°
2026-05-05 18:01 37.66285 -120.71462 22832 ft 374 kts 266°
2026-05-05 18:01 37.65902 -120.74702 22375 ft 373 kts 266°
2026-05-05 18:01 37.65517 -120.77928 21937 ft 370 kts 266°
2026-05-05 18:01 37.65131 -120.81127 21508 ft 368 kts 266°
2026-05-05 18:02 37.64746 -120.84317 21082 ft 366 kts 266°
2026-05-05 18:02 37.64365 -120.87484 20840 ft 366 kts 266°
2026-05-05 18:02 37.64025 -120.90339 20670 ft 389 kts 266°
2026-05-05 18:02 37.63646 -120.93499 20457 ft 400 kts 265°
2026-05-05 18:03 37.63221 -120.96957 20173 ft 399 kts 265°
2026-05-05 18:03 37.62823 -120.99989 19958 ft 396 kts 265°
2026-05-05 18:03 37.62361 -121.03418 19577 ft 395 kts 265°
2026-05-05 18:03 37.61900 -121.06816 19038 ft 391 kts 264°
2026-05-05 18:04 37.61444 -121.10185 18507 ft 388 kts 264°
2026-05-05 18:04 37.60992 -121.13535 17904 ft 385 kts 264°
2026-05-05 18:04 37.60548 -121.16845 17308 ft 382 kts 264°
2026-05-05 18:04 37.60106 -121.20133 16736 ft 378 kts 264°
2026-05-05 18:05 37.59667 -121.23395 16185 ft 375 kts 264°
2026-05-05 18:05 37.59231 -121.26621 15627 ft 372 kts 265°
2026-05-05 18:05 37.58840 -121.29785 15126 ft 368 kts 266°
2026-05-05 18:05 37.58476 -121.32971 14527 ft 367 kts 266°
2026-05-05 18:06 37.58216 -121.35299 14115 ft 366 kts 266°
2026-05-05 18:06 37.58006 -121.37165 13778 ft 365 kts 266°
2026-05-05 18:06 37.57570 -121.41010 13030 ft 363 kts 266°
2026-05-05 18:06 37.57252 -121.43791 12526 ft 360 kts 266°
2026-05-05 18:07 37.56993 -121.46032 12107 ft 358 kts 266°
2026-05-05 18:07 37.56705 -121.48523 11694 ft 356 kts 266°
2026-05-05 18:07 37.56349 -121.51600 11147 ft 354 kts 266°
2026-05-05 18:07 37.55995 -121.54652 10575 ft 345 kts 266°
2026-05-05 18:08 37.55651 -121.57559 10362 ft 323 kts 266°
2026-05-05 18:08 37.55331 -121.60266 10204 ft 303 kts 267°
2026-05-05 18:08 37.55014 -121.62811 10062 ft 287 kts 263°
2026-05-05 18:08 37.54507 -121.65229 9936 ft 287 kts 258°
2026-05-05 18:09 37.53912 -121.67628 9536 ft 291 kts 257°
2026-05-05 18:09 37.53299 -121.70061 9185 ft 291 kts 257°
2026-05-05 18:09 37.52701 -121.72488 8835 ft 289 kts 257°
2026-05-05 18:09 37.52116 -121.74903 8477 ft 287 kts 257°
2026-05-05 18:10 37.51539 -121.77302 8220 ft 280 kts 257°
2026-05-05 18:10 37.50991 -121.79574 8062 ft 263 kts 257°
2026-05-05 18:10 37.50478 -121.81720 7806 ft 248 kts 257°
2026-05-05 18:10 37.49982 -121.83785 7523 ft 244 kts 257°
2026-05-05 18:11 37.49493 -121.85814 7226 ft 239 kts 257°
2026-05-05 18:11 37.49083 -121.87818 6957 ft 234 kts 269°
2026-05-05 18:11 37.49161 -121.89801 6743 ft 229 kts 279°
2026-05-05 18:11 37.49302 -121.91809 6497 ft 231 kts 278°
2026-05-05 18:12 37.49431 -121.93824 6240 ft 230 kts 277°
2026-05-05 18:12 37.49554 -121.95827 6003 ft 230 kts 277°
2026-05-05 18:12 37.49675 -121.97829 5711 ft 227 kts 277°
2026-05-05 18:12 37.49789 -121.99785 5441 ft 221 kts 277°
2026-05-05 18:13 37.49897 -122.01665 5199 ft 215 kts 277°
2026-05-05 18:13 37.50005 -122.03529 4963 ft 211 kts 276°
2026-05-05 18:13 37.50108 -122.05340 4712 ft 204 kts 276°
2026-05-05 18:13 37.50207 -122.07086 4493 ft 194 kts 276°
2026-05-05 18:14 37.50303 -122.08760 4274 ft 188 kts 277°
2026-05-05 18:14 37.50723 -122.10264 4064 ft 184 kts 304°
2026-05-05 18:14 37.51366 -122.11644 3880 ft 185 kts 298°
2026-05-05 18:14 37.51953 -122.13095 3676 ft 186 kts 297°
2026-05-05 18:15 37.52548 -122.14558 3458 ft 188 kts 298°
2026-05-05 18:15 37.53154 -122.16013 3249 ft 188 kts 298°
2026-05-05 18:15 37.53673 -122.17269 3070 ft 182 kts 298°
2026-05-05 18:15 37.54236 -122.18629 2997 ft 170 kts 298°
2026-05-05 18:16 37.54775 -122.19920 2847 ft 169 kts 298°
2026-05-05 18:16 37.55317 -122.21221 2628 ft 166 kts 298°
2026-05-05 18:16 37.55853 -122.22508 2413 ft 165 kts 298°
2026-05-05 18:16 37.56361 -122.23729 2184 ft 153 kts 298°
2026-05-05 18:17 37.56830 -122.24856 2032 ft 136 kts 298°
2026-05-05 18:17 37.57257 -122.25880 1810 ft 128 kts 298°
2026-05-05 18:17 37.57676 -122.26885 1647 ft 131 kts 298°
2026-05-05 18:17 37.58098 -122.27896 1465 ft 129 kts 297°
2026-05-05 18:18 37.58511 -122.28889 1285 ft 128 kts 298°
2026-05-05 18:18 37.58928 -122.29890 1106 ft 130 kts 298°
2026-05-05 18:18 37.59338 -122.30871 922 ft 128 kts 297°
2026-05-05 18:18 37.59752 -122.31862 742 ft 128 kts 298°
2026-05-05 18:19 37.60172 -122.32870 571 ft 130 kts 296°
2026-05-05 18:19 37.60589 -122.33870 396 ft 127 kts 296°
2026-05-05 18:19 37.61000 -122.34855 233 ft 127 kts 296°
2026-05-05 18:19 37.61412 -122.35840 57 ft 127 kts 296°
2026-05-05 18:20 37.61790 -122.36747 22 ft 100 kts 298°
2026-05-05 18:20 37.62039 -122.37354 21 ft 56 kts 296°
2026-05-05 18:20 37.62158 -122.37642 21 ft 16 kts 298°
2026-05-05 18:20 37.62195 -122.37741 21 ft 12 kts 292°
2026-05-05 18:21 37.62223 -122.37856 21 ft 15 kts 280°
2026-05-05 18:21 37.62226 -122.37988 21 ft 15 kts 267°
2026-05-05 18:21 37.62220 -122.38115 21 ft 14 kts 263°
2026-05-05 18:21 37.62167 -122.38205 21 ft 12 kts 210°
2026-05-05 18:22 37.62095 -122.38250 21 ft 12 kts 185°
2026-05-05 18:22 37.62039 -122.38186 21 ft 11 kts 120°
2026-05-05 18:22 37.62000 -122.38102 22 ft 11 kts 120°
2026-05-05 18:22 37.61953 -122.38025 23 ft 12 kts 148°
2026-05-05 18:23 37.61868 -122.37985 22 ft 12 kts 158°
2026-05-05 18:23 37.61788 -122.37951 21 ft 12 kts 172°
2026-05-05 18:23 37.61706 -122.37949 21 ft 11 kts 191°
2026-05-05 18:23 37.61640 -122.37980 21 ft 9 kts 206°
2026-05-05 18:24 37.61586 -122.38017 23 ft 9 kts 210°
2026-05-05 18:24 37.61577 -122.38080 21 ft 8 kts 290°
2026-05-05 18:24 37.61602 -122.38137 21 ft 7 kts 298°
2026-05-05 18:24 37.61617 -122.38197 21 ft 7 kts 276°
2026-05-05 18:25 37.61612 -122.38250 21 ft 5 kts 286°
2026-05-05 18:25 37.61621 -122.38258 21 ft 5 kts 338°
2026-05-05 18:25 37.61655 -122.38259 21 ft 1 kts 359°
2026-05-05 18:25 37.61659 -122.38259 21 ft 0 kts 359°